Location: Fort Wayne
(41.1310°N, 85.1290°W)
Time: 09:47:19
(UTC-04:00)

SR - Visible Passes

Search period start: 01 October 2016 00:00
Search period end: 11 October 2016 00:00
Orbit: 584 x 874 km, 66.7° (Epoch: 30 September)

Date Brightness Start Highest point End Pass type
(mag) Time Alt. Az. Time Alt. Az. Time Alt. Az.
06 Oct ? 06:49:10 10° ESE 06:50:02 10° ESE 06:50:52 10° E visible
08 Oct ? 06:49:38 10° SSE 06:53:02 23° ESE 06:56:24 10° ENE visible
10 Oct ? 06:52:01 10° S 06:56:10 49° ESE 07:00:16 10° NE visible
